Location: Peebles
(55.6412°N, 3.1714°W)
Time: 14:16:53
(UTC+01:00)

CZ-2C R/B - Pass Details

Date: 26 September 2021
Orbit: 785 x 870 km, 98.2° (Epoch: 17 October)

Event Time Altitude Azimuth Distance (km) Brightness Sun altitude
Rises 19:57:13 0° 15° (NNE) 3,411 5.8 -8.8°
Reaches altitude 10° 19:59:35 10° 15° (NNE) 2,483 5.1 -9.1°
Maximum altitude 20:05:08 88° 286° (WNW) 867 2.8 -9.9°
Drops below altitude 10° 20:10:44 10° 199° (SSW) 2,506 5.2 -10.6°
Sets 20:13:07 0° 199° (SSW) 3,444 6.0 -11.0°
